Juneau, AK

8:52 PM AKDT on July 24, 2017 (GMT -0800)
Juneau International

Weather History for PAJN - December, 2012

Change the Weather History Date:

Saturday, December 1, 2012

  Actual Average Record
Temperature  
Mean Temperature 16 °F 31 °F  
Max Temperature 21 °F 35 °F 48 °F (1997)
Min Temperature 11 °F 27 °F -4 °F (1990)
Degree Days  
Heating Degree Days 49 34  
Month to date heating degree days 49 34  
Since 1 July heating degree days 2990 2665  
Moisture  
Dew Point 8 °F    
Average Humidity 63    
Maximum Humidity 80    
Minimum Humidity 45    
Precipitation  
Precipitation 0.08 in 0.20 in 1.44 in (1997)
Month to date precipitation 0.08 0.20  
Year to date precipitation 58.58 56.63  
Snow  
Snow 1.30 in 0.50 in 15.00 in (1958)
Month to date snowfall 1.3 0.5  
Since 1 July snowfall 18.3 14.4  
Snow Depth 5.00 in    
Sea Level Pressure  
Sea Level Pressure 29.43 in    
Wind  
Wind Speed 5 mph (East)    
Max Wind Speed 17 mph    
Max Gust Speed 20 mph    
Visibility 5 miles    
Events Snow    
T = Trace of Precipitation, MM = Missing Value Source: NWS Daily Summary

Daily Weather History Graph

Daily Weather History Graph

Search for Another Location

Airport or City:

Trip Planner

Search our weather history database for the weather conditions in past years. The results will help you decide how hot, cold, wet, or windy it might be!

Date:

Astronomy

Dec. 01, 2012 Rise Set
Actual Time 8:21 AM AKST 3:13 PM AKST
Civil Twilight 7:31 AM AKST 4:03 PM AKST
Nautical Twilight 6:39 AM AKST 4:55 PM AKST
Astronomical Twilight 5:51 AM AKST 5:43 PM AKST
Moon 6:24 PM AKST (12/1) 10:27 AM AKST (12/1)
Length of Visible Light 8h 31m
Length of Day
6h 51m
Waning Gibbous, 91% of the Moon is Illuminated
Dec 1
Waning Gibbous
Dec 6
Last Quarter
Dec 12
New
Dec 19
First Quarter
Dec 28
Full

Hourly Weather History & Observations

Time (AKST) Temp. Windchill Dew Point Humidity Pressure Visibility Wind Dir Wind Speed Gust Speed Precip Events Conditions
12:53 AM 12.9 °F 5.2 °F 7.0 °F 77% 29.50 in 10.0 mi WSW 4.6 mph - N/A   Scattered Clouds
1:53 AM 19.0 °F 9.0 °F 6.1 °F 57% 29.50 in 10.0 mi SE 8.1 mph - N/A   Overcast
3:53 AM 21.0 °F 9.3 °F 3.0 °F 46% 29.49 in 10.0 mi East 11.5 mph - N/A   Overcast
4:53 AM 19.9 °F 8.6 °F 3.0 °F 48% 29.48 in 10.0 mi East 10.4 mph - N/A   Overcast
5:53 AM 19.9 °F 10.1 °F 3.0 °F 48% 29.47 in 10.0 mi ENE 8.1 mph - N/A   Overcast
6:53 AM 19.9 °F 7.9 °F 3.9 °F 50% 29.47 in 10.0 mi East 11.5 mph - N/A   Overcast
7:53 AM 19.0 °F 8.2 °F 5.0 °F 54% 29.47 in 10.0 mi East 9.2 mph - N/A   Overcast
8:53 AM 18.0 °F 8.7 °F 5.0 °F 57% 29.46 in 10.0 mi ESE 6.9 mph - N/A   Overcast
9:53 AM 19.0 °F 13.9 °F 3.9 °F 52% 29.46 in 10.0 mi ESE 3.5 mph - N/A   Overcast
10:53 AM 17.1 °F 8.7 °F 8.1 °F 68% 29.47 in 6.0 mi SE 5.8 mph - 0.00 in Snow Light Snow
11:43 AM 17.6 °F - 10.4 °F 73% 29.45 in 2.0 mi Calm Calm - 0.01 in Snow Light Snow
11:53 AM 17.1 °F - 10.9 °F 77% 29.46 in 1.0 mi Calm Calm - 0.01 in Snow Light Snow
12:53 PM 17.1 °F - 12.0 °F 81% 29.44 in 1.5 mi Calm Calm - 0.01 in Snow Light Snow
1:42 PM 17.6 °F 12.3 °F 10.4 °F 73% 29.44 in 2.0 mi ESE 3.5 mph - 0.01 in Snow Light Snow
1:53 PM 17.1 °F 11.7 °F 10.9 °F 77% 29.44 in 2.5 mi East 3.5 mph - 0.01 in Snow Light Snow
2:36 PM 17.6 °F 9.3 °F 8.6 °F 68% 29.42 in 6.0 mi SE 5.8 mph - 0.00 in Snow Light Snow
2:53 PM 17.1 °F 11.7 °F 9.0 °F 71% 29.42 in 7.0 mi ESE 3.5 mph - 0.00 in Snow Light Snow
3:04 PM 17.6 °F 8.2 °F 8.6 °F 68% 29.42 in 4.0 mi SE 6.9 mph - 0.00 in Snow Light Snow
3:53 PM 16.0 °F 10.4 °F 10.0 °F 77% 29.42 in 4.0 mi NE 3.5 mph - 0.00 in Snow Light Snow
4:53 PM 16.0 °F 8.8 °F 10.9 °F 81% 29.41 in 4.0 mi ENE 4.6 mph - 0.00 in Snow Light Snow
5:53 PM 16.0 °F - 10.9 °F 81% 29.41 in 3.0 mi Calm Calm - 0.00 in Snow Light Snow
6:53 PM 16.0 °F 10.4 °F 10.0 °F 77% 29.40 in 3.0 mi East 3.5 mph - 0.01 in Snow Light Snow
7:37 PM 15.8 °F 10.2 °F 10.4 °F 79% 29.39 in 2.0 mi ENE 3.5 mph - 0.00 in Snow Light Snow
7:53 PM 16.0 °F 10.4 °F 10.9 °F 81% 29.39 in 1.5 mi ENE 3.5 mph - 0.01 in Snow Light Snow
8:49 PM 15.8 °F 10.2 °F 10.4 °F 79% 29.38 in 2.0 mi NE 3.5 mph - 0.01 in Snow Light Snow
8:53 PM 15.1 °F 7.7 °F 10.9 °F 84% 29.39 in 2.0 mi NE 4.6 mph - 0.01 in Snow Light Snow
9:38 PM 15.8 °F 10.2 °F 10.4 °F 79% 29.38 in 2.5 mi ENE 3.5 mph - 0.01 in Snow Light Snow
9:53 PM 15.1 °F 7.7 °F 10.9 °F 84% 29.38 in 3.0 mi ENE 4.6 mph - 0.01 in Snow Light Snow
10:53 PM 15.1 °F 9.4 °F 10.0 °F 80% 29.37 in 3.0 mi ENE 3.5 mph - 0.00 in Snow Light Snow
11:12 PM 15.8 °F - 10.4 °F 79% 29.36 in 2.5 mi Calm Calm - 0.00 in Snow Light Snow
11:53 PM 15.1 °F - 10.9 °F 84% 29.36 in 2.0 mi Calm Calm - 0.01 in Snow Light Snow